Weather History for KJMR - October, 2014

Change the Weather History Date:

Monday, October 13, 2014

  Actual Average Record
Temperature  
Mean Temperature 47 °F -  
Max Temperature 50 °F 58 °F 82 °F (1956)
Min Temperature 44 °F 32 °F 15 °F (1979)
Degree Days  
Heating Degree Days 18    
Moisture  
Dew Point 46 °F    
Average Humidity 90    
Maximum Humidity 100    
Minimum Humidity 76    
Precipitation  
Precipitation 0.08 in - - ()
Sea Level Pressure  
Sea Level Pressure 29.82 in    
Wind  
Wind Speed 3 mph (ENE)    
Max Wind Speed 7 mph    
Max Gust Speed -    
Visibility 6 miles    
Events Rain    
Averages and records for this station are not official NWS values.
T = Trace of Precipitation, MM = Missing Value Source: NWS Daily Summary

Daily Weather History Graph

Daily Weather History Graph

Search for Another Location

Airport or City:

Trip Planner

Search our weather history database for the weather conditions in past years. The results will help you decide how hot, cold, wet, or windy it might be!

Date:

Astronomy

Oct. 13, 2014 Rise Set
Actual Time 7:27 AM CDT 6:30 PM CDT
Civil Twilight 6:57 AM CDT 7:00 PM CDT
Nautical Twilight 6:22 AM CDT 7:35 PM CDT
Astronomical Twilight 5:47 AM CDT 8:09 PM CDT
Moon 10:31 PM CDT (10/13) 12:52 PM CDT (10/13)
Length of Visible Light 12h 03m
Length of Day
11h 03m
Waning Gibbous, 70% of the Moon is Illuminated
Oct 13
Waning Gibbous
Oct 15
Last Quarter
Oct 23
New
Oct 30
First Quarter
Nov 6
Full

Hourly Weather History & Observations

Time (CDT) Temp. Windchill Dew Point Humidity Pressure Visibility Wind Dir Wind Speed Gust Speed Precip Events Conditions
12:14 AM 50.0 °F - 42.8 °F 76% 29.80 in 10.0 mi SE 3.5 mph - N/A   Overcast
12:34 AM 50.0 °F - 42.8 °F 76% 29.80 in 10.0 mi SSE 4.6 mph - N/A   Overcast
12:54 AM 50.0 °F - 42.8 °F 76% 29.80 in 10.0 mi SSE 4.6 mph - N/A   Overcast
1:14 AM 50.0 °F - 44.6 °F 82% 29.80 in 10.0 mi SSE 5.8 mph - N/A   Overcast
1:34 AM 50.0 °F - 44.6 °F 82% 29.80 in 10.0 mi SSE 6.9 mph - N/A   Mostly Cloudy
1:54 AM 50.0 °F - 44.6 °F 82% 29.80 in 10.0 mi SSE 6.9 mph - N/A   Mostly Cloudy
2:14 AM 50.0 °F - 44.6 °F 82% 29.79 in 10.0 mi SSE 3.5 mph - N/A   Overcast
2:35 AM 50.0 °F - 44.6 °F 82% 29.80 in 10.0 mi SSE 5.8 mph - N/A   Overcast
2:54 AM 50.0 °F - 44.6 °F 82% 29.80 in 10.0 mi SSE 4.6 mph - N/A   Mostly Cloudy
3:14 AM 50.0 °F - 44.6 °F 82% 29.79 in 10.0 mi SSE 4.6 mph - N/A   Mostly Cloudy
3:34 AM 50.0 °F - 46.4 °F 87% 29.78 in 10.0 mi SSE 4.6 mph - N/A   Overcast
3:54 AM 50.0 °F - 46.4 °F 87% 29.77 in 10.0 mi SSE 3.5 mph - N/A   Overcast
4:14 AM 50.0 °F - 46.4 °F 87% 29.78 in 7.0 mi SSE 5.8 mph - N/A   Overcast
4:34 AM 50.0 °F - 46.4 °F 87% 29.78 in 7.0 mi SSE 4.6 mph - N/A   Overcast
4:54 AM 50.0 °F - 46.4 °F 87% 29.78 in 7.0 mi SSE 4.6 mph - N/A   Overcast
5:14 AM 50.0 °F - 46.4 °F 87% 29.78 in 5.0 mi SE 3.5 mph - N/A   Overcast
5:34 AM 50.0 °F - 46.4 °F 87% 29.78 in 5.0 mi Calm Calm - N/A   Overcast
5:54 AM 50.0 °F - 46.4 °F 87% 29.79 in 5.0 mi SE 3.5 mph - N/A   Overcast
6:14 AM 50.0 °F - 46.4 °F 87% 29.79 in 5.0 mi SSE 4.6 mph - N/A   Overcast
6:34 AM 50.0 °F - 46.4 °F 87% 29.79 in 5.0 mi SSE 4.6 mph - N/A   Overcast
6:54 AM 50.0 °F - 46.4 °F 87% 29.79 in 5.0 mi South 3.5 mph - N/A   Overcast
7:14 AM 50.0 °F - 46.4 °F 87% 29.78 in 5.0 mi Calm Calm - N/A   Overcast
7:34 AM 50.0 °F - 46.4 °F 87% 29.79 in 5.0 mi Calm Calm - N/A   Overcast
7:54 AM 50.0 °F - 46.4 °F 87% 29.80 in 7.0 mi Calm Calm - N/A   Overcast
8:14 AM 50.0 °F - 46.4 °F 87% 29.79 in 5.0 mi Calm Calm - N/A   Overcast
8:34 AM 50.0 °F - 46.4 °F 87% 29.81 in 4.0 mi Calm Calm - N/A   Overcast
8:54 AM 50.0 °F - 46.4 °F 87% 29.80 in 4.0 mi Calm Calm - N/A   Overcast
9:14 AM 50.0 °F - 46.4 °F 87% 29.81 in 5.0 mi Calm Calm - N/A   Overcast
9:34 AM 50.0 °F - 48.2 °F 94% 29.82 in 2.5 mi Calm Calm - N/A   Heavy Drizzle
9:54 AM 48.2 °F - 46.4 °F 93% 29.82 in 1.8 mi Calm Calm - N/A   Heavy Drizzle
10:14 AM 48.2 °F - 46.4 °F 93% 29.82 in 1.5 mi Calm Calm - 0.01 in   Drizzle
10:34 AM 46.4 °F - 44.6 °F 93% 29.83 in 1.2 mi Calm Calm - 0.03 in Rain Rain
10:54 AM 46.4 °F - 44.6 °F 93% 29.83 in 1.2 mi Calm Calm - 0.04 in   Heavy Drizzle
11:14 AM 46.4 °F - 44.6 °F 93% 29.83 in 1.2 mi Calm Calm - 0.01 in   Heavy Drizzle
11:34 AM 46.4 °F - 46.4 °F 100% 29.83 in 1.2 mi Calm Calm - 0.02 in   Drizzle
11:54 AM 48.2 °F - 46.4 °F 93% 29.83 in 1.5 mi Calm Calm - 0.02 in Rain Light Rain
12:14 PM 48.2 °F - 46.4 °F 93% 29.83 in 1.8 mi Calm Calm - N/A   Light Drizzle
12:34 PM 48.2 °F - 46.4 °F 93% 29.83 in 2.5 mi Calm Calm - N/A   Overcast
12:54 PM 50.0 °F - 48.2 °F 94% 29.82 in 4.0 mi Calm Calm - N/A   Overcast
1:14 PM 50.0 °F - 48.2 °F 94% 29.82 in 5.0 mi Calm Calm - N/A   Overcast
1:34 PM 50.0 °F - 48.2 °F 94% 29.82 in 5.0 mi Calm Calm - N/A   Overcast
1:55 PM 50.0 °F - 48.2 °F 94% 29.82 in 4.0 mi Calm Calm - N/A   Overcast
2:14 PM 50.0 °F - 48.2 °F 94% 29.81 in 3.0 mi Calm Calm - N/A   Overcast
2:34 PM 50.0 °F - 48.2 °F 94% 29.81 in 2.0 mi Calm Calm - N/A   Overcast
2:54 PM 50.0 °F - 50.0 °F 100% 29.82 in 1.8 mi Calm Calm - N/A   Overcast
3:14 PM 50.0 °F - 50.0 °F 100% 29.82 in 1.8 mi Calm Calm - N/A   Overcast
3:34 PM 50.0 °F - 50.0 °F 100% 29.83 in 2.0 mi Calm Calm - N/A   Overcast
3:54 PM 50.0 °F - 48.2 °F 94% 29.83 in 1.5 mi North 3.5 mph - N/A   Drizzle
4:14 PM 50.0 °F - 50.0 °F 100% 29.84 in 1.5 mi North 3.5 mph - N/A   Heavy Drizzle
4:34 PM 50.0 °F - 50.0 °F 100% 29.85 in 2.0 mi North 3.5 mph - 0.01 in   Drizzle
4:54 PM 50.0 °F - 50.0 °F 100% 29.85 in 2.0 mi North 4.6 mph - 0.01 in   Drizzle
5:14 PM 50.0 °F - 48.2 °F 94% 29.85 in 2.5 mi North 6.9 mph - 0.01 in   Drizzle
5:34 PM 46.4 °F 42.9 °F 44.6 °F 93% 29.85 in 3.0 mi North 6.9 mph - 0.01 in   Drizzle
5:54 PM 46.4 °F 42.9 °F 46.4 °F 100% 29.85 in 2.5 mi North 6.9 mph - 0.01 in Rain Rain
6:15 PM 46.4 °F 44.3 °F 44.6 °F 93% 29.84 in 5.0 mi North 4.6 mph - N/A   Light Drizzle
6:34 PM 44.6 °F 41.4 °F 44.6 °F 100% 29.84 in 10.0 mi North 5.8 mph - N/A   Overcast
6:54 PM 44.6 °F 42.2 °F 44.6 °F 100% 29.84 in 10.0 mi North 4.6 mph - N/A   Overcast
7:15 PM 46.4 °F 43.5 °F 44.6 °F 93% 29.84 in 10.0 mi North 5.8 mph - N/A   Overcast
7:34 PM 48.2 °F - 46.4 °F 93% 29.84 in 10.0 mi North 6.9 mph - N/A   Mostly Cloudy
7:54 PM 48.2 °F - 44.6 °F 87% 29.85 in 10.0 mi North 4.6 mph - N/A   Overcast
8:14 PM 48.2 °F - 44.6 °F 87% 29.85 in 10.0 mi North 5.8 mph - N/A   Overcast
8:35 PM 48.2 °F - 44.6 °F 87% 29.86 in 10.0 mi North 5.8 mph - N/A   Overcast
8:54 PM 48.2 °F - 44.6 °F 87% 29.86 in 10.0 mi North 4.6 mph - N/A   Overcast
9:14 PM 48.2 °F - 44.6 °F 87% 29.86 in 10.0 mi North 4.6 mph - N/A   Overcast
9:34 PM 48.2 °F - 44.6 °F 87% 29.86 in 10.0 mi North 5.8 mph - N/A   Overcast
9:55 PM 48.2 °F - 44.6 °F 87% 29.86 in 10.0 mi North 4.6 mph - N/A   Overcast
10:14 PM 48.2 °F - 44.6 °F 87% 29.86 in 10.0 mi North 4.6 mph - N/A   Overcast
10:34 PM 48.2 °F - 44.6 °F 87% 29.85 in 10.0 mi North 5.8 mph - N/A   Overcast
10:54 PM 48.2 °F - 44.6 °F 87% 29.85 in 10.0 mi North 4.6 mph - N/A   Overcast
11:03 PM 48.2 °F - 44.6 °F 87% 29.85 in 10.0 mi North 5.8 mph - N/A   Overcast